Weather in Nyal

Russia / Murmansk Oblast     69°04′40″N   32°07′18″E
temp.,
°C
wind,
m/s
gust,
m/s
humid.,
%
clouds,
%
prec.,
mm/h
press.,
hPa
HPBL,
m
26 june, sun
sun2600:00+14ese5967100 0.0 1017213
03:00+14sse377092 0.1 1015138
06:00+16wnw247151 0.4 1015338
09:00+16n776159 0.9 1016726
12:00+13ne1010685 0.0 1020666
15:00+14ene996213 0.0 10221008
18:00+12ene886543 0.0 1024815
21:00+9ene677142 0.0 1026590
27 june, mon
mon2700:00+7ene578485 0.0 1027232
03:00+6e368742 0.0 1028195
06:00+8ese44735 0.0 1028355
09:00+12se44560 0.0 1027680
12:00+16ese33420 0.0 10261066
15:00+18ese33365 0.0 10261253
18:00+19ese333486 0.0 10261265
21:00+17ese47505 0.0 1026225
28 june, tue
tue2800:00+13se47653 0.0 1027103
03:00+12sse226933 0.0 102718
06:00+14s346096 0.0 1027186
09:00+16ssw575083 0.0 1027326
12:00+20sw67450 0.0 1026678
15:00+23sw66455 0.0 1025926
18:00+24ssw56435 0.0 10241028
21:00+22ssw585343 0.0 1023224
29 june, wed
wed2900:00+17ssw510655 0.0 1023129
03:00+16sw510675 0.0 1023157
06:00+18sw510585 0.0 1022309
09:00+22wsw79505 0.0 1021498
12:00+26wsw67435 0.0 10211249
15:00+27wsw56365 0.0 10191647
18:00+28wsw56363 0.0 10181971
21:00+26sw35529 0.0 101879
30 june, thu
thu3000:00+21ssw446224 0.0 101827
03:00+20sw346798 0.0 101852
06:00+22wsw596723 0.0 1017390
09:00+24wsw68582 0.0 10171089
12:00+26wsw5748100 0.7 10162087
15:00+17ene567850 0.8 1019324
18:00+15ene6680100 0.0 1020357
21:00+15ene347797 0.0 1021332